Location: Praha
(50.0830°N, 14.4670°E)
Time: 15:37:30
(UTC+01:00)

ISS - Pass Details

Date: 10 December 2018
Orbit: 401 x 408 km, 51.6° (Epoch: 12 December)

Event Time Altitude Azimuth Distance (km) Brightness Sun altitude
Rises 17:28:05 0° 287° (WNW) 2,320 0.9 -13.3°
Reaches altitude 10° 17:30:12 10° 282° (WNW) 1,458 -0.1 -13.6°
Maximum altitude 17:33:22 49° 206° (SSW) 530 -3.0 -14.1°
Enters shadow 17:36:14 12° 132° (SE) 1,341 -1.5 -14.5°
